Weather History for Peru, IN

Change the Weather History Date:

Monday, November 11, 2013

  Actual Average Record
Temperature  
Mean Temperature 39 °F -  
Max Temperature 50 °F 48 °F 73 °F (2010)
Min Temperature 28 °F 33 °F 21 °F (2008)
Degree Days  
Heating Degree Days 26    
Moisture  
Dew Point 35 °F    
Average Humidity 92    
Maximum Humidity 100    
Minimum Humidity 62    
Precipitation  
Precipitation 0.04 in - - ()
Sea Level Pressure  
Sea Level Pressure 30.22 in    
Wind  
Wind Speed 11 mph (NNW)    
Max Wind Speed 21 mph    
Max Gust Speed 31 mph    
Visibility 8 miles    
Events Rain , Snow    
Averages and records for this station are not official NWS values.
T = Trace of Precipitation, MM = Missing Value Source: NWS Daily Summary

Daily Weather History Graph

Daily Weather History Graph

Search for Another Location

Airport:

Trip Planner

Search our weather history database for the weather conditions in past years. The results will help you decide how hot, cold, wet, or windy it might be!

Date:

Astronomy

Nov. 11, 2013 Rise Set
Actual Time 7:26 AM EST 5:30 PM EST
Civil Twilight 6:57 AM EST 5:59 PM EST
Nautical Twilight 6:24 AM EST 6:31 PM EST
Astronomical Twilight 5:52 AM EST 7:04 PM EST
Moon 2:12 PM EST (11/11) 1:09 AM EST (11/11)
Length of Visible Light 11h 01m
Length of Day
10h 03m
Waxing Gibbous, 66% of the Moon is Illuminated
Nov 11
Waxing Gibbous
Nov 17
Full
Nov 25
Last Quarter
Dec 2
New
Dec 9
First Quarter

Hourly Weather History & Observations

Time (EST) Temp. Windchill Dew Point Humidity Pressure Visibility Wind Dir Wind Speed Gust Speed Precip Events Conditions
12:58 AM 35.6 °F 30.7 °F 35.2 °F 99% 30.30 in 10.0 mi SSW 5.8 mph - N/A   Overcast
1:58 AM 38.3 °F 32.5 °F 35.6 °F 90% 30.29 in 10.0 mi SW 8.1 mph - N/A   Overcast
2:55 AM 39.2 °F 33.0 °F 35.6 °F 87% 30.23 in 10.0 mi SSW 9.2 mph - N/A   Overcast
2:58 AM 39.4 °F 33.2 °F 35.4 °F 86% 30.26 in 10.0 mi SSW 9.2 mph - 0.00 in   Overcast
3:10 AM 39.2 °F 33.6 °F 35.6 °F 87% 30.23 in 10.0 mi SW 8.1 mph - N/A   Overcast
3:33 AM 39.2 °F 32.5 °F 35.6 °F 87% 30.22 in 10.0 mi SW 10.4 mph - N/A   Overcast
3:50 AM 39.2 °F 32.5 °F 35.6 °F 87% 30.22 in 10.0 mi SW 10.4 mph - N/A   Overcast
3:57 AM 39.2 °F 32.5 °F 35.6 °F 87% 30.22 in 10.0 mi SW 10.4 mph - N/A   Overcast
3:58 AM 39.6 °F 33.0 °F 35.1 °F 84% 30.25 in 10.0 mi SW 10.4 mph - 0.00 in   Overcast
4:06 AM 39.2 °F 33.0 °F 35.6 °F 87% 30.21 in 10.0 mi SW 9.2 mph - N/A   Overcast
4:30 AM 39.2 °F 33.0 °F 35.6 °F 87% 30.21 in 10.0 mi SW 9.2 mph - N/A   Overcast
4:58 AM 39.9 °F 33.4 °F 34.9 °F 82% 30.23 in 10.0 mi SSW 10.4 mph - 0.00 in   Overcast
5:20 AM 41.0 °F 34.7 °F 33.8 °F 76% 30.19 in 10.0 mi SSW 10.4 mph - N/A   Overcast
5:58 AM 40.5 °F 34.6 °F 34.5 °F 79% 30.22 in 10.0 mi SW 9.2 mph - 0.00 in   Overcast
6:58 AM 39.2 °F 32.5 °F 34.5 °F 83% 30.21 in 10.0 mi SSW 10.4 mph - N/A   Scattered Clouds
7:58 AM 41.2 °F 34.1 °F 35.4 °F 80% 30.19 in 10.0 mi SW 12.7 mph - N/A   Overcast
8:58 AM 43.5 °F 36.4 °F 35.2 °F 73% 30.18 in 10.0 mi SW 15.0 mph - N/A   Overcast
9:58 AM 46.0 °F 39.6 °F 35.2 °F 66% 30.16 in 10.0 mi SW 15.0 mph - N/A   Overcast
10:30 AM 46.4 °F 40.1 °F 35.6 °F 66% 30.13 in 10.0 mi SW 15.0 mph 23.0 mph N/A   Overcast
10:58 AM 46.9 °F - 35.1 °F 63% 30.15 in 10.0 mi SW 15.0 mph - N/A   Overcast
11:58 AM 48.0 °F - 36.3 °F 64% 30.13 in 10.0 mi WSW 13.8 mph - N/A   Overcast
12:02 PM 48.2 °F - 35.6 °F 62% 30.11 in 10.0 mi West 12.7 mph - N/A   Overcast
12:58 PM 50.2 °F - 37.8 °F 62% 30.12 in 10.0 mi West 18.4 mph - N/A   Overcast
1:58 PM 49.6 °F - 39.0 °F 67% 30.10 in 10.0 mi WSW 12.7 mph - N/A   Overcast
2:58 PM 48.7 °F - 38.8 °F 69% 30.10 in 10.0 mi WNW 13.8 mph - N/A   Overcast
3:14 PM 48.2 °F - 37.4 °F 66% 30.08 in 10.0 mi NW 15.0 mph - N/A Rain Light Rain
3:32 PM 46.4 °F 39.8 °F 39.2 °F 76% 30.09 in 10.0 mi NW 16.1 mph - N/A   Overcast
3:43 PM 46.4 °F 40.1 °F 39.2 °F 76% 30.09 in 10.0 mi NW 15.0 mph - N/A   Light Drizzle
3:58 PM 44.4 °F 37.2 °F 43.2 °F 95% 30.14 in 10.0 mi NNW 16.1 mph - 0.00 in Rain Light Rain
4:09 PM 42.8 °F 36.6 °F 42.8 °F 100% 30.11 in 10.0 mi NNW 11.5 mph - N/A   Overcast
4:19 PM 42.8 °F 35.8 °F 42.8 °F 100% 30.11 in 10.0 mi NNW 13.8 mph - N/A   Overcast
4:24 PM 42.8 °F 36.2 °F 42.8 °F 100% 30.11 in 10.0 mi NNW 12.7 mph - N/A   Light Drizzle
4:34 PM 42.8 °F 35.8 °F 42.8 °F 100% 30.11 in 10.0 mi NNW 13.8 mph - N/A   Light Drizzle
4:42 PM 41.0 °F 33.5 °F 41.0 °F 100% 30.12 in 10.0 mi NNW 13.8 mph - N/A   Overcast
4:46 PM 41.0 °F 33.9 °F 41.0 °F 100% 30.12 in 10.0 mi NNW 12.7 mph - N/A   Light Drizzle
4:58 PM 41.4 °F 33.3 °F 41.4 °F 100% 30.16 in 10.0 mi NNW 16.1 mph - 0.00 in Rain Light Rain
5:01 PM 41.0 °F 33.5 °F 41.0 °F 100% 30.13 in 10.0 mi NNW 13.8 mph - N/A Rain Light Rain
5:21 PM 39.2 °F 30.8 °F 39.2 °F 100% 30.14 in 10.0 mi North 15.0 mph 20.7 mph N/A Rain Light Rain
5:58 PM 38.8 °F 30.4 °F 38.8 °F 100% 30.19 in 10.0 mi North 15.0 mph - 0.00 in Rain Light Rain
6:18 PM 37.4 °F 27.5 °F 37.4 °F 100% 30.17 in 10.0 mi North 18.4 mph 26.5 mph N/A Rain Light Rain
6:38 PM 35.6 °F 25.2 °F 35.6 °F 100% 30.18 in 10.0 mi North 18.4 mph 28.8 mph N/A Rain Light Rain
6:43 PM 35.6 °F 25.2 °F 35.6 °F 100% 30.18 in 10.0 mi North 18.4 mph 25.3 mph N/A Rain Light Rain
6:48 PM 35.6 °F 25.2 °F 35.6 °F 100% 30.19 in 10.0 mi North 18.4 mph 25.3 mph N/A Rain Light Rain
6:58 PM 34.7 °F 25.1 °F 34.7 °F 100% 30.22 in 10.0 mi North 15.0 mph 24.2 mph 0.02 in Rain Light Rain
7:28 PM 33.8 °F 24.8 °F 33.8 °F 100% 30.22 in 8.0 mi North 12.7 mph - N/A Snow Light Snow
7:33 PM 32.0 °F 22.1 °F 32.0 °F 100% 30.22 in 6.0 mi North 13.8 mph 19.6 mph N/A Snow Light Snow
7:36 PM 32.0 °F 22.5 °F 32.0 °F 100% 30.22 in 6.0 mi North 12.7 mph 19.6 mph N/A Snow Light Snow
7:41 PM 32.0 °F 22.1 °F 32.0 °F 100% 30.23 in 5.0 mi North 13.8 mph 21.9 mph N/A Snow Light Snow
7:46 PM 32.0 °F 22.5 °F 32.0 °F 100% 30.23 in 4.0 mi North 12.7 mph 21.9 mph N/A Snow Light Snow
7:51 PM 32.0 °F 22.1 °F 32.0 °F 100% 30.24 in 5.0 mi North 13.8 mph 21.9 mph N/A Snow Light Snow
7:58 PM 32.7 °F 23.4 °F 32.7 °F 100% 30.27 in 5.0 mi North 12.7 mph 20.7 mph 0.00 in Snow Light Snow
8:01 PM 32.0 °F 24.2 °F 32.0 °F 100% 30.24 in 4.0 mi North 9.2 mph 20.7 mph N/A Snow Light Snow
8:06 PM 32.0 °F 22.5 °F 32.0 °F 100% 30.24 in 5.0 mi North 12.7 mph - N/A Snow Light Snow
8:11 PM 32.0 °F 22.5 °F 32.0 °F 100% 30.24 in 5.0 mi North 12.7 mph - N/A Snow Light Snow
8:16 PM 32.0 °F 23.0 °F 32.0 °F 100% 30.25 in 4.0 mi North 11.5 mph - N/A Snow Light Snow
8:21 PM 32.0 °F 23.0 °F 32.0 °F 100% 30.25 in 4.0 mi North 11.5 mph - N/A Snow Light Snow
8:26 PM 32.0 °F 23.0 °F 32.0 °F 100% 30.26 in 5.0 mi North 11.5 mph - N/A Snow Light Snow
8:31 PM 32.0 °F 24.8 °F 32.0 °F 100% 30.26 in 5.0 mi North 8.1 mph - N/A Snow Light Snow
8:34 PM 32.0 °F 22.5 °F 32.0 °F 100% 30.26 in 4.0 mi North 12.7 mph - N/A Snow Light Snow
8:39 PM 32.0 °F 24.2 °F 32.0 °F 100% 30.26 in 4.0 mi North 9.2 mph 17.3 mph N/A Snow Light Snow
8:44 PM 32.0 °F 21.6 °F 32.0 °F 100% 30.26 in 4.0 mi North 15.0 mph - N/A Snow Light Snow
8:59 PM 32.4 °F 23.0 °F 32.4 °F 100% 30.30 in 4.0 mi North 12.7 mph - 0.01 in Snow Light Snow
9:04 PM 32.0 °F 23.0 °F 32.0 °F 100% 30.27 in 3.0 mi NNE 11.5 mph - N/A Snow Light Snow
9:09 PM 32.0 °F 22.5 °F 32.0 °F 100% 30.28 in 3.0 mi NNE 12.7 mph - N/A Snow Light Snow
9:19 PM 32.0 °F 20.5 °F 32.0 °F 100% 30.28 in 3.0 mi NNE 18.4 mph 24.2 mph N/A Snow Light Snow
9:24 PM 32.0 °F 21.2 °F 32.0 °F 100% 30.29 in 3.0 mi NNE 16.1 mph 24.2 mph N/A Snow Light Snow
9:29 PM 32.0 °F 19.8 °F 32.0 °F 100% 30.29 in 3.0 mi NNE 20.7 mph 31.1 mph N/A Snow Light Snow
9:39 PM 32.0 °F 22.1 °F 32.0 °F 100% 30.29 in 4.0 mi North 13.8 mph - N/A Snow Light Snow
9:44 PM 30.2 °F 19.8 °F 30.2 °F 100% 30.30 in 6.0 mi North 13.8 mph 20.7 mph N/A Snow Light Snow
9:58 PM 29.8 °F 20.3 °F 29.8 °F 100% 30.34 in 4.0 mi North 11.5 mph 18.4 mph 0.01 in Snow Light Snow
10:04 PM 30.2 °F 21.9 °F 30.2 °F 100% 30.32 in 5.0 mi North 9.2 mph - N/A Snow Light Snow
10:09 PM 30.2 °F 21.9 °F 30.2 °F 100% 30.32 in 4.0 mi North 9.2 mph - N/A Snow Light Snow
10:14 PM 30.2 °F 21.3 °F 30.2 °F 100% 30.32 in 5.0 mi North 10.4 mph - N/A Snow Light Snow
10:19 PM 28.4 °F 20.4 °F 28.4 °F 100% 30.33 in 5.0 mi North 8.1 mph - N/A Snow Light Snow
10:39 PM 28.4 °F 20.4 °F 28.4 °F 100% 30.33 in 6.0 mi North 8.1 mph - N/A Snow Light Snow
10:44 PM 28.4 °F 20.4 °F 28.4 °F 100% 30.33 in 6.0 mi North 8.1 mph - N/A Snow Light Snow
10:58 PM 29.1 °F 22.1 °F 29.1 °F 100% 30.38 in 10.0 mi North 6.9 mph - 0.00 in   Overcast
11:03 PM 28.4 °F 22.2 °F 28.4 °F 100% 30.34 in 10.0 mi North 5.8 mph - N/A   Scattered Clouds
11:58 PM 29.8 °F 20.9 °F 27.3 °F 90% 30.39 in 10.0 mi North 10.4 mph - N/A   Overcast